Time,TemperatureF,DewpointF,PressureIn,WindDirection,WindDirectionDegrees,WindSpeedMPH,WindSpeedGustMPH,Humidity,HourlyPrecipIn,Conditions,Clouds,dailyrainin,SoftwareType,DateUTC
2013-01-19 00:00:00,39.4,27.0,30.13,South,182,15.6,16.2,64,0.00,,,0.00,TxWx,2013-01-19 06:00:00,
2013-01-19 00:05:00,39.4,27.0,30.12,South,186,17.1,17.1,64,0.00,,,0.00,TxWx,2013-01-19 06:05:00,
2013-01-19 00:10:00,39.3,27.0,30.13,South,189,11.7,14.4,64,0.00,,,0.00,TxWx,2013-01-19 06:10:00,
2013-01-19 00:15:00,39.5,28.0,30.12,SSW,207,15.9,18.3,64,0.00,,,0.00,TxWx,2013-01-19 06:15:00,
2013-01-19 00:20:00,39.3,27.0,30.12,South,182,15.6,16.5,64,0.00,,,0.00,TxWx,2013-01-19 06:20:00,
2013-01-19 00:25:00,39.3,27.0,30.12,SSW,192,9.6,12.3,64,0.00,,,0.00,TxWx,2013-01-19 06:25:00,
2013-01-19 00:31:00,39.3,27.0,30.12,South,184,18.9,18.9,64,0.00,,,0.00,TxWx,2013-01-19 06:31:00,
2013-01-19 00:36:00,39.5,27.0,30.11,South,179,15.6,15.6,64,0.00,,,0.00,TxWx,2013-01-19 06:36:00,
2013-01-19 00:41:00,39.4,27.0,30.12,South,179,16.8,17.4,65,0.00,,,0.00,TxWx,2013-01-19 06:41:00,
2013-01-19 00:46:00,39.5,28.0,30.12,South,175,16.5,16.8,65,0.00,,,0.00,TxWx,2013-01-19 06:46:00,
2013-01-19 00:51:00,39.6,28.0,30.12,South,187,21.6,25.8,65,0.00,,,0.00,TxWx,2013-01-19 06:51:00,
2013-01-19 00:56:00,39.4,27.0,30.11,South,184,13.5,15.9,65,0.00,,,0.00,TxWx,2013-01-19 06:56:00,
2013-01-19 01:02:00,39.4,27.0,30.12,South,187,10.5,10.5,65,0.00,,,0.00,TxWx,2013-01-19 07:02:00,
2013-01-19 01:07:00,39.5,28.0,30.12,SSW,208,26.7,26.7,65,0.00,,,0.00,TxWx,2013-01-19 07:07:00,
2013-01-19 01:12:00,39.6,28.0,30.12,South,182,24.0,25.8,65,0.00,,,0.00,TxWx,2013-01-19 07:12:00,
2013-01-19 01:17:00,39.5,27.0,30.12,South,186,21.9,21.9,65,0.00,,,0.00,TxWx,2013-01-19 07:17:00,
2013-01-19 01:22:00,39.5,28.0,30.12,South,183,26.7,27.9,65,0.00,,,0.00,TxWx,2013-01-19 07:22:00,
2013-01-19 01:27:00,39.4,27.0,30.13,SSW,194,17.1,20.7,65,0.00,,,0.00,TxWx,2013-01-19 07:27:00,
2013-01-19 01:33:00,39.5,27.0,30.13,South,189,15.3,15.6,65,0.00,,,0.00,TxWx,2013-01-19 07:33:00,
2013-01-19 01:38:00,39.5,28.0,30.13,South,186,19.5,19.5,65,0.00,,,0.00,TxWx,2013-01-19 07:38:00,
2013-01-19 01:43:00,39.4,27.0,30.13,South,175,20.1,20.1,66,0.00,,,0.00,TxWx,2013-01-19 07:43:00,
2013-01-19 01:49:00,39.1,27.0,30.13,SSW,193,19.8,20.7,66,0.00,,,0.00,TxWx,2013-01-19 07:49:00,
2013-01-19 01:54:00,39.1,28.0,30.13,SSW,207,10.2,11.7,66,0.00,,,0.00,TxWx,2013-01-19 07:54:00,
2013-01-19 01:59:00,39.1,28.0,30.13,South,189,12.9,14.4,66,0.00,,,0.00,TxWx,2013-01-19 07:59:00,
2013-01-19 02:04:00,39.1,28.0,30.13,SSW,196,16.2,16.2,66,0.00,,,0.00,TxWx,2013-01-19 08:04:00,
2013-01-19 02:09:00,39.2,28.0,30.13,SSW,197,24.6,24.6,67,0.00,,,0.00,TxWx,2013-01-19 08:09:00,
2013-01-19 02:15:00,39.0,28.0,30.13,South,184,9.6,11.4,67,0.00,,,0.00,TxWx,2013-01-19 08:15:00,
2013-01-19 02:20:00,38.8,28.0,30.13,South,175,19.5,21.0,67,0.00,,,0.00,TxWx,2013-01-19 08:20:00,
2013-01-19 02:25:00,38.7,28.0,30.12,South,173,15.9,15.9,67,0.00,,,0.00,TxWx,2013-01-19 08:25:00,
2013-01-19 02:30:00,38.7,28.0,30.12,SSE,164,18.3,20.7,68,0.00,,,0.00,TxWx,2013-01-19 08:30:00,
2013-01-19 02:35:00,38.7,28.0,30.13,South,187,11.1,11.4,68,0.00,,,0.00,TxWx,2013-01-19 08:35:00,
2013-01-19 02:40:00,38.7,28.0,30.12,SSW,203,17.4,26.1,68,0.00,,,0.00,TxWx,2013-01-19 08:40:00,
2013-01-19 02:45:00,38.8,28.0,30.12,South,186,23.1,23.1,68,0.00,,,0.00,TxWx,2013-01-19 08:45:00,
2013-01-19 02:50:00,38.7,28.0,30.13,SW,218,15.6,16.8,68,0.00,,,0.00,TxWx,2013-01-19 08:50:00,
2013-01-19 02:56:00,38.7,28.0,30.12,South,184,15.3,18.9,68,0.00,,,0.00,TxWx,2013-01-19 08:56:00,
2013-01-19 03:01:00,38.5,28.0,30.12,South,181,15.6,18.6,68,0.00,,,0.00,TxWx,2013-01-19 09:01:00,
2013-01-19 03:06:00,38.5,29.0,30.12,SSW,203,9.0,9.0,69,0.00,,,0.00,TxWx,2013-01-19 09:06:00,
2013-01-19 03:12:00,38.6,29.0,30.12,South,186,24.3,28.5,69,0.00,,,0.00,TxWx,2013-01-19 09:12:00,
2013-01-19 03:17:00,38.5,28.0,30.12,South,179,12.3,14.1,69,0.00,,,0.00,TxWx,2013-01-19 09:17:00,
2013-01-19 03:22:00,38.4,28.0,30.12,SSW,200,13.8,17.4,69,0.00,,,0.00,TxWx,2013-01-19 09:22:00,
2013-01-19 03:27:00,38.4,28.0,30.12,South,189,12.6,18.9,69,0.00,,,0.00,TxWx,2013-01-19 09:27:00,
2013-01-19 03:32:00,38.4,28.0,30.12,South,177,11.1,11.1,69,0.00,,,0.00,TxWx,2013-01-19 09:32:00,
2013-01-19 03:37:00,38.3,28.0,30.11,South,183,15.6,16.8,69,0.00,,,0.00,TxWx,2013-01-19 09:37:00,
2013-01-19 03:42:00,38.3,28.0,30.12,SSW,212,14.4,17.1,69,0.00,,,0.00,TxWx,2013-01-19 09:42:00,
2013-01-19 03:47:00,38.4,28.0,30.12,South,183,29.1,31.5,69,0.00,,,0.00,TxWx,2013-01-19 09:47:00,
2013-01-19 03:52:00,38.3,28.0,30.11,South,188,16.5,17.1,69,0.00,,,0.00,TxWx,2013-01-19 09:52:00,
2013-01-19 03:58:00,38.3,28.0,30.11,South,188,17.7,17.7,70,0.00,,,0.00,TxWx,2013-01-19 09:58:00,
2013-01-19 04:03:00,38.2,28.0,30.11,South,188,18.3,18.3,70,0.00,,,0.00,TxWx,2013-01-19 10:03:00,
2013-01-19 04:08:00,38.2,28.0,30.11,SW,226,10.8,13.5,70,0.00,,,0.00,TxWx,2013-01-19 10:08:00,
2013-01-19 04:13:00,38.3,28.0,30.11,SSW,194,14.7,14.7,70,0.00,,,0.00,TxWx,2013-01-19 10:13:00,
2013-01-19 04:18:00,38.2,28.0,30.11,SSW,196,16.2,19.5,69,0.00,,,0.00,TxWx,2013-01-19 10:18:00,
2013-01-19 04:23:00,38.1,28.0,30.11,South,175,10.5,10.5,70,0.00,,,0.00,TxWx,2013-01-19 10:23:00,
2013-01-19 04:29:00,38.1,28.0,30.11,SSW,199,12.9,20.1,70,0.00,,,0.00,TxWx,2013-01-19 10:29:00,
2013-01-19 04:34:00,38.1,28.0,30.10,SSW,192,15.6,15.6,70,0.00,,,0.00,TxWx,2013-01-19 10:34:00,
2013-01-19 04:39:00,38.0,28.0,30.11,SSE,160,8.7,10.5,70,0.00,,,0.00,TxWx,2013-01-19 10:39:00,
2013-01-19 04:44:00,37.9,28.0,30.11,SSW,193,11.7,12.3,70,0.00,,,0.00,TxWx,2013-01-19 10:44:00,
2013-01-19 04:49:00,38.1,28.0,30.11,South,175,17.7,18.6,70,0.00,,,0.00,TxWx,2013-01-19 10:49:00,
2013-01-19 04:54:00,38.1,28.0,30.10,South,186,14.1,14.1,70,0.00,,,0.00,TxWx,2013-01-19 10:54:00,
2013-01-19 04:59:00,38.1,28.0,30.10,South,188,23.7,26.1,70,0.00,,,0.00,TxWx,2013-01-19 10:59:00,
2013-01-19 05:04:00,38.0,28.0,30.10,SSW,197,20.1,20.4,70,0.00,,,0.00,TxWx,2013-01-19 11:04:00,
2013-01-19 05:10:00,37.9,28.0,30.10,SSW,202,13.2,14.4,70,0.00,,,0.00,TxWx,2013-01-19 11:10:00,
2013-01-19 06:47:00,38.4,28.0,30.08,SSW,193,15.6,15.6,70,0.00,,,0.00,TxWx,2013-01-19 12:47:00,
2013-01-19 06:48:00,38.4,28.0,30.09,South,181,18.3,21.3,70,0.00,,,0.00,TxWx,2013-01-19 12:48:00,
2013-01-19 06:51:00,38.4,28.0,30.09,South,182,15.0,15.0,70,0.00,,,0.00,TxWx,2013-01-19 12:51:00,
2013-01-19 06:56:00,38.5,28.0,30.08,SSW,195,6.0,8.7,70,0.00,,,0.00,TxWx,2013-01-19 12:56:00,
2013-01-19 07:01:00,38.5,28.0,30.08,SSW,199,12.9,15.3,70,0.00,,,0.00,TxWx,2013-01-19 13:01:00,
2013-01-19 07:06:00,38.5,28.0,30.08,South,190,10.5,10.5,70,0.00,,,0.00,TxWx,2013-01-19 13:06:00,
2013-01-19 07:11:00,38.5,29.0,30.08,South,190,9.3,9.3,70,0.00,,,0.00,TxWx,2013-01-19 13:11:00,
2013-01-19 07:16:00,38.6,29.0,30.08,SSW,194,14.4,14.7,70,0.00,,,0.00,TxWx,2013-01-19 13:16:00,
2013-01-19 07:21:00,38.6,29.0,30.08,South,188,14.4,16.8,69,0.00,,,0.00,TxWx,2013-01-19 13:21:00,
2013-01-19 07:27:00,38.7,29.0,30.08,SSE,164,16.2,17.7,69,0.00,,,0.00,TxWx,2013-01-19 13:27:00,
2013-01-19 07:32:00,38.7,29.0,30.08,SSW,211,11.7,13.8,69,0.00,,,0.00,TxWx,2013-01-19 13:32:00,
2013-01-19 07:37:00,38.7,29.0,30.08,South,179,6.0,9.0,69,0.00,,,0.00,TxWx,2013-01-19 13:37:00,
2013-01-19 07:42:00,38.8,29.0,30.08,South,189,12.0,14.7,69,0.00,,,0.00,TxWx,2013-01-19 13:42:00,
2013-01-19 07:47:00,38.8,29.0,30.08,South,188,16.2,17.4,69,0.00,,,0.00,TxWx,2013-01-19 13:47:00,
2013-01-19 07:52:00,39.0,29.0,30.08,South,178,17.7,18.3,69,0.00,,,0.00,TxWx,2013-01-19 13:52:00,
2013-01-19 07:58:00,39.2,29.0,30.08,South,185,16.5,17.4,69,0.00,,,0.00,TxWx,2013-01-19 13:58:00,
2013-01-19 08:03:00,39.3,28.0,30.08,South,184,10.2,10.2,68,0.00,,,0.00,TxWx,2013-01-19 14:03:00,
2013-01-19 08:08:00,39.4,28.0,30.08,South,178,10.5,11.7,68,0.00,,,0.00,TxWx,2013-01-19 14:08:00,
2013-01-19 08:13:00,39.5,29.0,30.08,South,188,15.6,15.6,68,0.00,,,0.00,TxWx,2013-01-19 14:13:00,
2013-01-19 08:19:00,39.7,29.0,30.08,South,179,16.8,16.8,67,0.00,,,0.00,TxWx,2013-01-19 14:19:00,
2013-01-19 08:24:00,39.7,29.0,30.08,South,189,13.2,13.2,67,0.00,,,0.00,TxWx,2013-01-19 14:24:00,
2013-01-19 08:29:00,40.0,29.0,30.08,South,183,12.9,12.9,67,0.00,,,0.00,TxWx,2013-01-19 14:29:00,
2013-01-19 08:34:00,40.3,29.0,30.08,South,183,14.4,16.5,66,0.00,,,0.00,TxWx,2013-01-19 14:34:00,
2013-01-19 08:39:00,40.6,29.0,30.07,SSW,200,15.3,15.3,66,0.00,,,0.00,TxWx,2013-01-19 14:39:00,
2013-01-19 08:44:00,40.7,29.0,30.08,SSW,203,10.2,14.1,66,0.00,,,0.00,TxWx,2013-01-19 14:44:00,
2013-01-19 08:49:00,40.8,29.0,30.08,SSW,195,19.8,19.8,65,0.00,,,0.00,TxWx,2013-01-19 14:49:00,
2013-01-19 08:55:00,41.0,29.0,30.08,South,184,18.6,23.7,65,0.00,,,0.00,TxWx,2013-01-19 14:55:00,
2013-01-19 09:00:00,41.1,29.0,30.08,South,188,14.4,14.4,65,0.00,,,0.00,TxWx,2013-01-19 15:00:00,
2013-01-19 09:05:00,41.1,29.0,30.08,SW,222,12.6,16.5,65,0.00,,,0.00,TxWx,2013-01-19 15:05:00,
2013-01-19 09:10:00,41.3,29.0,30.07,SSW,192,19.8,20.1,65,0.00,,,0.00,TxWx,2013-01-19 15:10:00,
2013-01-19 09:15:00,41.4,29.0,30.07,South,182,16.5,19.5,65,0.00,,,0.00,TxWx,2013-01-19 15:15:00,
2013-01-19 09:21:00,41.4,29.0,30.07,South,183,18.6,28.8,64,0.00,,,0.00,TxWx,2013-01-19 15:21:00,
2013-01-19 09:26:00,41.7,30.0,30.07,South,180,11.4,15.6,64,0.00,,,0.00,TxWx,2013-01-19 15:26:00,
2013-01-19 09:31:00,42.1,29.0,30.07,SW,214,9.0,10.5,64,0.00,,,0.00,TxWx,2013-01-19 15:31:00,
2013-01-19 09:36:00,42.6,30.0,30.07,SW,223,6.6,7.8,63,0.00,,,0.00,TxWx,2013-01-19 15:36:00,
2013-01-19 09:42:00,42.6,30.0,30.07,South,181,24.6,24.6,62,0.00,,,0.00,TxWx,2013-01-19 15:42:00,
2013-01-19 09:47:00,42.9,30.0,30.07,SSW,193,13.2,15.0,62,0.00,,,0.00,TxWx,2013-01-19 15:47:00,
2013-01-19 09:52:00,43.0,30.0,30.07,South,171,22.2,22.2,62,0.00,,,0.00,TxWx,2013-01-19 15:52:00,
2013-01-19 09:57:00,43.3,29.0,30.07,SSW,192,15.6,18.3,61,0.00,,,0.00,TxWx,2013-01-19 15:57:00,
2013-01-19 10:03:00,43.9,30.0,30.07,South,177,10.2,11.1,61,0.00,,,0.00,TxWx,2013-01-19 16:03:00,
2013-01-19 10:08:00,44.7,31.0,30.07,SW,233,16.5,16.5,59,0.00,,,0.00,TxWx,2013-01-19 16:08:00,
2013-01-19 10:13:00,45.1,30.0,30.07,South,190,24.9,24.9,59,0.00,,,0.00,TxWx,2013-01-19 16:13:00,
2013-01-19 10:18:00,45.1,30.0,30.06,South,176,21.9,21.9,58,0.00,,,0.00,TxWx,2013-01-19 16:18:00,
2013-01-19 10:23:00,45.0,30.0,30.06,SSW,192,18.6,19.8,58,0.00,,,0.00,TxWx,2013-01-19 16:23:00,
2013-01-19 10:28:00,45.1,30.0,30.05,SW,220,17.7,21.0,59,0.00,,,0.00,TxWx,2013-01-19 16:28:00,
2013-01-19 10:33:00,45.1,30.0,30.05,SSW,206,12.0,20.4,58,0.00,,,0.00,TxWx,2013-01-19 16:33:00,
2013-01-19 10:39:00,45.2,30.0,30.04,SSW,196,13.8,13.8,58,0.00,,,0.00,TxWx,2013-01-19 16:39:00,
2013-01-19 10:44:00,45.3,30.0,30.04,SSW,192,15.9,17.4,58,0.00,,,0.00,TxWx,2013-01-19 16:44:00,
2013-01-19 10:49:00,45.3,30.0,30.04,SSW,208,11.7,14.4,58,0.00,,,0.00,TxWx,2013-01-19 16:49:00,
2013-01-19 10:54:00,45.2,30.0,30.04,South,191,27.9,27.9,58,0.00,,,0.00,TxWx,2013-01-19 16:54:00,
2013-01-19 10:59:00,45.4,30.0,30.04,South,183,12.0,12.0,59,0.00,,,0.00,TxWx,2013-01-19 16:59:00,
2013-01-19 11:04:00,45.7,32.0,30.03,South,185,10.8,11.4,58,0.00,,,0.00,TxWx,2013-01-19 17:04:00,
2013-01-19 11:10:00,46.4,31.0,30.02,SSW,198,16.5,16.5,58,0.00,,,0.00,TxWx,2013-01-19 17:10:00,
2013-01-19 11:15:00,47.1,32.0,30.02,SSW,198,17.4,17.4,57,0.00,,,0.00,TxWx,2013-01-19 17:15:00,
2013-01-19 11:20:00,46.4,30.0,30.01,South,175,19.2,22.5,56,0.00,,,0.00,TxWx,2013-01-19 17:20:00,
2013-01-19 11:25:00,46.2,30.0,30.01,SSW,210,16.2,24.6,57,0.00,,,0.00,TxWx,2013-01-19 17:25:00,
2013-01-19 11:30:00,46.7,32.0,30.01,South,186,27.3,28.8,57,0.00,,,0.00,TxWx,2013-01-19 17:30:00,
2013-01-19 11:35:00,46.8,32.0,30.01,South,184,15.6,17.4,57,0.00,,,0.00,TxWx,2013-01-19 17:35:00,
2013-01-19 11:40:00,46.8,32.0,30.01,SSW,192,11.4,11.7,57,0.00,,,0.00,TxWx,2013-01-19 17:40:00,
2013-01-19 11:46:00,46.9,32.0,30.00,South,182,16.8,19.5,56,0.00,,,0.00,TxWx,2013-01-19 17:46:00,
2013-01-19 11:51:00,46.9,32.0,29.99,SSW,204,16.2,16.2,56,0.00,,,0.00,TxWx,2013-01-19 17:51:00,
2013-01-19 11:57:00,47.2,32.0,29.99,SW,217,14.7,14.7,56,0.00,,,0.00,TxWx,2013-01-19 17:57:00,
2013-01-19 12:02:00,47.2,32.0,29.99,SW,226,18.0,22.2,56,0.00,,,0.00,TxWx,2013-01-19 18:02:00,
2013-01-19 12:07:00,46.8,32.0,29.98,South,189,29.4,29.4,56,0.00,,,0.00,TxWx,2013-01-19 18:07:00,
2013-01-19 12:13:00,47.0,33.0,29.97,South,184,21.0,21.0,57,0.00,,,0.00,TxWx,2013-01-19 18:13:00,
2013-01-19 12:18:00,46.7,33.0,29.97,South,185,19.2,19.8,58,0.00,,,0.00,TxWx,2013-01-19 18:18:00,
2013-01-19 12:23:00,46.4,31.0,29.97,South,182,17.4,20.1,58,0.00,,,0.00,TxWx,2013-01-19 18:23:00,
2013-01-19 12:28:00,46.7,33.0,29.97,South,182,19.2,19.2,58,0.00,,,0.00,TxWx,2013-01-19 18:28:00,
2013-01-19 12:33:00,46.6,33.0,29.97,South,188,19.2,19.2,58,0.00,,,0.00,TxWx,2013-01-19 18:33:00,
2013-01-19 12:38:00,46.4,32.0,29.96,SSW,203,11.1,14.4,58,0.00,,,0.00,TxWx,2013-01-19 18:38:00,
2013-01-19 12:44:00,46.5,33.0,29.96,South,191,24.3,24.3,58,0.00,,,0.00,TxWx,2013-01-19 18:44:00,
2013-01-19 12:49:00,46.9,33.0,29.96,South,186,26.4,26.4,58,0.00,,,0.00,TxWx,2013-01-19 18:49:00,
2013-01-19 12:54:00,46.9,33.0,29.96,SSE,168,19.8,20.4,59,0.00,,,0.00,TxWx,2013-01-19 18:54:00,
2013-01-19 12:59:00,46.9,33.0,29.96,South,182,13.2,16.8,59,0.00,,,0.00,TxWx,2013-01-19 18:59:00,
2013-01-19 13:05:00,47.1,33.0,29.95,SSW,197,9.6,12.9,59,0.00,,,0.00,TxWx,2013-01-19 19:05:00,
2013-01-19 13:10:00,47.3,33.0,29.95,SW,228,5.4,5.4,59,0.00,,,0.00,TxWx,2013-01-19 19:10:00,
2013-01-19 13:15:00,47.5,33.0,29.95,South,180,13.5,14.7,59,0.00,,,0.00,TxWx,2013-01-19 19:15:00,
2013-01-19 13:20:00,47.7,34.0,29.95,SSW,199,9.3,9.6,58,0.00,,,0.00,TxWx,2013-01-19 19:20:00,
2013-01-19 13:26:00,47.8,34.0,29.94,SW,215,8.7,12.6,58,0.00,,,0.00,TxWx,2013-01-19 19:26:00,
2013-01-19 13:31:00,47.9,34.0,29.94,SSW,200,14.7,14.7,58,0.00,,,0.00,TxWx,2013-01-19 19:31:00,
2013-01-19 13:36:00,48.0,34.0,29.94,SSW,207,12.0,12.0,58,0.00,,,0.00,TxWx,2013-01-19 19:36:00,
2013-01-19 13:41:00,48.1,34.0,29.94,South,187,14.1,14.1,58,0.00,,,0.00,TxWx,2013-01-19 19:41:00,
2013-01-19 13:46:00,48.3,34.0,29.94,SSW,205,8.1,10.2,58,0.00,,,0.00,TxWx,2013-01-19 19:46:00,
2013-01-19 13:51:00,48.2,34.0,29.94,SSW,192,14.7,14.7,58,0.00,,,0.00,TxWx,2013-01-19 19:51:00,
2013-01-19 13:57:00,48.1,34.0,29.94,SSW,200,8.7,9.9,58,0.00,,,0.00,TxWx,2013-01-19 19:57:00,
2013-01-19 14:02:00,48.0,34.0,29.94,SSW,204,16.5,16.5,58,0.00,,,0.00,TxWx,2013-01-19 20:02:00,
2013-01-19 14:07:00,47.9,34.0,29.94,SSW,212,14.7,15.6,58,0.00,,,0.00,TxWx,2013-01-19 20:07:00,
2013-01-19 14:12:00,47.9,34.0,29.94,South,191,15.3,15.9,59,0.00,,,0.00,TxWx,2013-01-19 20:12:00,
2013-01-19 14:17:00,47.8,34.0,29.94,South,182,16.5,21.3,59,0.00,,,0.00,TxWx,2013-01-19 20:17:00,
2013-01-19 14:22:00,47.8,34.0,29.94,SSW,199,19.5,21.6,59,0.00,,,0.00,TxWx,2013-01-19 20:22:00,
2013-01-19 14:28:00,47.8,34.0,29.94,South,189,17.4,17.4,59,0.00,,,0.00,TxWx,2013-01-19 20:28:00,
2013-01-19 14:33:00,47.7,34.0,29.93,South,181,9.9,10.8,59,0.00,,,0.00,TxWx,2013-01-19 20:33:00,
2013-01-19 14:38:00,47.7,35.0,29.93,SSW,202,11.4,11.4,60,0.00,,,0.00,TxWx,2013-01-19 20:38:00,
2013-01-19 14:43:00,47.7,35.0,29.93,SSW,192,11.4,12.9,60,0.00,,,0.00,TxWx,2013-01-19 20:43:00,
2013-01-19 14:49:00,47.6,35.0,29.91,South,184,17.4,17.4,60,0.00,,,0.00,TxWx,2013-01-19 20:49:00,
2013-01-19 14:54:00,47.8,35.0,29.91,South,184,17.4,19.2,60,0.00,,,0.00,TxWx,2013-01-19 20:54:00,
2013-01-19 14:59:00,48.0,35.0,29.91,South,187,23.7,27.9,60,0.00,,,0.00,TxWx,2013-01-19 20:59:00,
2013-01-19 15:04:00,48.3,34.0,29.92,South,176,19.5,22.2,59,0.00,,,0.00,TxWx,2013-01-19 21:04:00,
2013-01-19 15:10:00,48.6,35.0,29.92,South,188,19.2,19.2,59,0.00,,,0.00,TxWx,2013-01-19 21:10:00,
2013-01-19 15:15:00,48.6,35.0,29.93,South,176,21.0,21.9,59,0.00,,,0.00,TxWx,2013-01-19 21:15:00,
2013-01-19 15:20:00,48.7,35.0,29.92,SSW,194,10.2,10.2,59,0.00,,,0.00,TxWx,2013-01-19 21:20:00,
2013-01-19 15:25:00,48.6,35.0,29.92,SSW,195,18.3,18.3,59,0.00,,,0.00,TxWx,2013-01-19 21:25:00,
2013-01-19 15:30:00,48.7,35.0,29.92,SSW,197,12.3,14.4,59,0.00,,,0.00,TxWx,2013-01-19 21:30:00,
2013-01-19 15:35:00,48.7,35.0,29.92,South,185,22.2,22.2,59,0.00,,,0.00,TxWx,2013-01-19 21:35:00,
2013-01-19 15:41:00,48.7,35.0,29.92,SSW,199,15.3,16.2,59,0.00,,,0.00,TxWx,2013-01-19 21:41:00,
2013-01-19 15:46:00,48.7,35.0,29.91,South,183,12.9,12.9,59,0.00,,,0.00,TxWx,2013-01-19 21:46:00,
2013-01-19 15:51:00,48.7,35.0,29.91,South,181,16.5,17.1,60,0.00,,,0.00,TxWx,2013-01-19 21:51:00,
2013-01-19 15:56:00,48.5,35.0,29.91,South,187,18.6,18.6,60,0.00,,,0.00,TxWx,2013-01-19 21:56:00,
2013-01-19 16:02:00,48.4,35.0,29.91,South,184,13.2,17.1,60,0.00,,,0.00,TxWx,2013-01-19 22:02:00,
2013-01-19 16:07:00,48.4,35.0,29.92,SSW,192,14.4,16.8,60,0.00,,,0.00,TxWx,2013-01-19 22:07:00,
2013-01-19 16:12:00,48.3,35.0,29.92,SW,215,6.0,8.4,61,0.00,,,0.00,TxWx,2013-01-19 22:12:00,
2013-01-19 16:17:00,48.1,35.0,29.92,South,184,16.5,16.5,61,0.00,,,0.00,TxWx,2013-01-19 22:17:00,
2013-01-19 16:23:00,47.9,35.0,29.91,SSW,198,15.0,15.0,62,0.00,,,0.00,TxWx,2013-01-19 22:23:00,
2013-01-19 16:28:00,47.8,36.0,29.91,South,175,14.4,14.4,62,0.00,,,0.00,TxWx,2013-01-19 22:28:00,
2013-01-19 16:33:00,47.6,36.0,29.92,SSW,200,10.2,10.2,63,0.00,,,0.00,TxWx,2013-01-19 22:33:00,
2013-01-19 16:38:00,47.4,35.0,29.92,SSW,199,5.4,6.3,63,0.00,,,0.00,TxWx,2013-01-19 22:38:00,
2013-01-19 16:43:00,47.4,35.0,29.92,SSW,208,11.4,11.4,64,0.00,,,0.00,TxWx,2013-01-19 22:43:00,
2013-01-19 16:48:00,47.3,35.0,29.92,South,180,13.2,19.8,64,0.00,,,0.00,TxWx,2013-01-19 22:48:00,
2013-01-19 16:53:00,47.0,36.0,29.92,South,188,6.0,6.9,65,0.00,,,0.00,TxWx,2013-01-19 22:53:00,
2013-01-19 16:58:00,46.9,36.0,29.92,South,179,12.9,14.4,65,0.00,,,0.00,TxWx,2013-01-19 22:58:00,
2013-01-19 17:04:00,46.7,36.0,29.92,SW,215,5.4,6.9,66,0.00,,,0.00,TxWx,2013-01-19 23:04:00,
2013-01-19 17:09:00,46.6,36.0,29.92,SSW,195,9.0,9.0,66,0.00,,,0.00,TxWx,2013-01-19 23:09:00,
2013-01-19 17:15:00,46.3,35.0,29.92,SW,215,7.2,7.2,67,0.00,,,0.00,TxWx,2013-01-19 23:15:00,
2013-01-19 17:20:00,46.3,36.0,29.93,South,191,10.8,10.8,67,0.00,,,0.00,TxWx,2013-01-19 23:20:00,
2013-01-19 17:25:00,46.4,36.0,29.93,South,189,7.5,7.8,68,0.00,,,0.00,TxWx,2013-01-19 23:25:00,
2013-01-19 17:30:00,46.3,36.0,29.93,SSW,213,6.6,7.8,68,0.00,,,0.00,TxWx,2013-01-19 23:30:00,
2013-01-19 17:35:00,46.2,36.0,29.93,SSW,199,6.9,9.0,68,0.00,,,0.00,TxWx,2013-01-19 23:35:00,
2013-01-19 17:40:00,46.0,36.0,29.92,South,186,7.8,8.1,68,0.00,,,0.00,TxWx,2013-01-19 23:40:00,
2013-01-19 17:46:00,45.9,36.0,29.93,South,191,6.6,6.9,69,0.00,,,0.00,TxWx,2013-01-19 23:46:00,
2013-01-19 17:51:00,46.0,36.0,29.93,SSW,194,3.6,4.5,69,0.00,,,0.00,TxWx,2013-01-19 23:51:00,
2013-01-19 17:56:00,46.1,36.0,29.94,SW,234,12.9,12.9,69,0.00,,,0.00,TxWx,2013-01-19 23:56:00,
2013-01-19 18:01:00,46.0,36.0,29.94,SSW,204,6.6,6.6,69,0.00,,,0.00,TxWx,2013-01-20 00:01:00,
2013-01-19 18:06:00,46.0,36.0,29.94,SSW,210,8.1,8.1,69,0.00,,,0.00,TxWx,2013-01-20 00:06:00,
2013-01-19 18:11:00,46.1,36.0,29.94,SW,214,11.1,11.1,69,0.00,,,0.00,TxWx,2013-01-20 00:11:00,
2013-01-19 18:16:00,46.0,36.0,29.94,SW,219,9.0,9.9,69,0.00,,,0.00,TxWx,2013-01-20 00:16:00,
2013-01-19 18:21:00,45.9,36.0,29.94,SSW,200,5.7,6.9,69,0.00,,,0.00,TxWx,2013-01-20 00:21:00,
2013-01-19 18:27:00,45.9,36.0,29.93,South,183,8.1,8.4,69,0.00,,,0.00,TxWx,2013-01-20 00:27:00,
2013-01-19 18:32:00,45.9,36.0,29.93,SW,227,13.2,16.5,69,0.00,,,0.00,TxWx,2013-01-20 00:32:00,
2013-01-19 18:37:00,46.1,36.0,29.94,SSW,205,11.4,11.4,69,0.00,,,0.00,TxWx,2013-01-20 00:37:00,
2013-01-19 18:42:00,46.0,36.0,29.93,South,175,3.9,3.9,69,0.00,,,0.00,TxWx,2013-01-20 00:42:00,
2013-01-19 18:47:00,46.1,36.0,29.93,South,178,9.0,13.5,69,0.00,,,0.00,TxWx,2013-01-20 00:47:00,
2013-01-19 18:52:00,46.1,36.0,29.93,SW,230,7.8,11.4,69,0.00,,,0.00,TxWx,2013-01-20 00:52:00,
2013-01-19 18:58:00,46.0,36.0,29.93,SSW,198,7.8,9.6,69,0.00,,,0.00,TxWx,2013-01-20 00:58:00,
2013-01-19 19:03:00,45.8,36.0,29.93,SSW,206,12.6,12.6,69,0.00,,,0.00,TxWx,2013-01-20 01:03:00,
2013-01-19 19:08:00,45.8,36.0,29.93,South,174,4.5,5.4,69,0.00,,,0.00,TxWx,2013-01-20 01:08:00,
2013-01-19 19:13:00,45.7,36.0,29.93,SW,224,13.5,13.8,69,0.00,,,0.00,TxWx,2013-01-20 01:13:00,
2013-01-19 19:18:00,45.5,36.0,29.93,SSW,196,12.0,16.5,69,0.00,,,0.00,TxWx,2013-01-20 01:18:00,
2013-01-19 19:23:00,45.5,35.0,29.94,SW,216,13.8,13.8,69,0.00,,,0.00,TxWx,2013-01-20 01:23:00,
2013-01-19 19:28:00,45.4,35.0,29.93,SW,218,6.9,7.2,69,0.00,,,0.00,TxWx,2013-01-20 01:28:00,
2013-01-19 19:33:00,45.2,35.0,29.93,SW,226,9.0,9.0,69,0.00,,,0.00,TxWx,2013-01-20 01:33:00,
2013-01-19 19:39:00,45.2,35.0,29.93,SW,227,5.7,10.2,69,0.00,,,0.00,TxWx,2013-01-20 01:39:00,
2013-01-19 19:44:00,45.1,35.0,29.93,SSW,208,13.8,13.8,69,0.00,,,0.00,TxWx,2013-01-20 01:44:00,
2013-01-19 19:49:00,45.0,35.0,29.94,SSW,196,7.2,7.8,69,0.00,,,0.00,TxWx,2013-01-20 01:49:00,
2013-01-19 19:54:00,44.7,35.0,29.94,SW,235,7.2,9.9,69,0.00,,,0.00,TxWx,2013-01-20 01:54:00,
2013-01-19 20:00:00,44.4,35.0,29.94,SSW,199,10.8,11.7,70,0.00,,,0.00,TxWx,2013-01-20 02:00:00,
2013-01-19 20:05:00,44.0,35.0,29.94,SW,227,3.6,4.2,70,0.00,,,0.00,TxWx,2013-01-20 02:05:00,
2013-01-19 20:10:00,43.7,35.0,29.93,SSW,209,9.3,13.5,71,0.00,,,0.00,TxWx,2013-01-20 02:10:00,
2013-01-19 20:15:00,43.5,35.0,29.93,WNW,294,6.6,11.1,71,0.00,,,0.00,TxWx,2013-01-20 02:15:00,
2013-01-19 20:21:00,43.4,34.0,29.93,SSW,197,9.9,11.4,71,0.00,,,0.00,TxWx,2013-01-20 02:21:00,
2013-01-19 20:26:00,43.2,34.0,29.93,SW,219,9.9,10.8,71,0.00,,,0.00,TxWx,2013-01-20 02:26:00,
2013-01-19 20:31:00,43.1,34.0,29.93,South,184,12.6,14.7,71,0.00,,,0.00,TxWx,2013-01-20 02:31:00,
2013-01-19 20:37:00,43.1,34.0,29.93,SW,220,6.0,9.6,71,0.00,,,0.00,TxWx,2013-01-20 02:37:00,
2013-01-19 20:42:00,42.9,34.0,29.93,SSW,209,13.5,16.5,71,0.00,,,0.00,TxWx,2013-01-20 02:42:00,
2013-01-19 20:47:00,42.9,34.0,29.94,SSW,213,9.0,10.8,71,0.00,,,0.00,TxWx,2013-01-20 02:47:00,
2013-01-19 20:53:00,42.8,34.0,29.94,SW,222,6.0,11.1,70,0.00,,,0.00,TxWx,2013-01-20 02:53:00,
2013-01-19 20:58:00,42.7,34.0,29.94,SSW,213,6.3,6.3,70,0.00,,,0.00,TxWx,2013-01-20 02:58:00,
2013-01-19 21:03:00,42.8,34.0,29.94,South,179,7.8,9.3,70,0.00,,,0.00,TxWx,2013-01-20 03:03:00,
2013-01-19 21:08:00,42.8,34.0,29.94,WSW,249,9.9,10.8,70,0.00,,,0.00,TxWx,2013-01-20 03:08:00,
2013-01-19 21:13:00,42.9,34.0,29.94,SW,226,8.4,8.7,69,0.00,,,0.00,TxWx,2013-01-20 03:13:00,
2013-01-19 21:18:00,42.9,33.0,29.95,SSW,203,11.7,11.7,69,0.00,,,0.00,TxWx,2013-01-20 03:18:00,
2013-01-19 21:24:00,44.0,33.0,29.95,SW,236,12.9,12.9,66,0.00,,,0.00,TxWx,2013-01-20 03:24:00,
2013-01-19 21:29:00,44.5,33.0,29.95,SW,234,18.0,18.0,63,0.00,,,0.00,TxWx,2013-01-20 03:29:00,
2013-01-19 21:34:00,44.1,30.0,29.95,SW,228,23.7,24.9,61,0.00,,,0.00,TxWx,2013-01-20 03:34:00,
2013-01-19 21:39:00,44.1,29.0,29.95,SW,232,24.9,32.4,59,0.00,,,0.00,TxWx,2013-01-20 03:39:00,
2013-01-19 21:44:00,43.5,29.0,29.96,SW,233,20.7,20.7,60,0.00,,,0.00,TxWx,2013-01-20 03:44:00,
2013-01-19 21:50:00,43.2,29.0,29.96,WSW,242,32.7,32.7,60,0.00,,,0.00,TxWx,2013-01-20 03:50:00,
2013-01-19 21:55:00,42.7,29.0,29.96,West,280,21.6,22.2,61,0.00,,,0.00,TxWx,2013-01-20 03:55:00,
2013-01-19 22:00:00,42.6,29.0,29.96,SW,231,25.8,28.8,60,0.00,,,0.00,TxWx,2013-01-20 04:00:00,
2013-01-19 22:05:00,42.5,28.0,29.97,SW,231,19.2,20.7,61,0.00,,,0.00,TxWx,2013-01-20 04:05:00,
2013-01-19 22:11:00,42.3,29.0,29.97,WSW,255,24.6,24.6,62,0.00,,,0.00,TxWx,2013-01-20 04:11:00,
2013-01-19 22:16:00,42.1,29.0,29.97,WSW,247,29.4,29.4,63,0.00,,,0.00,TxWx,2013-01-20 04:16:00,
2013-01-19 22:21:00,42.2,29.0,29.96,WSW,255,10.2,15.0,63,0.00,,,0.00,TxWx,2013-01-20 04:21:00,
2013-01-19 22:26:00,41.9,29.0,29.97,WSW,256,14.7,17.1,63,0.00,,,0.00,TxWx,2013-01-20 04:26:00,
2013-01-19 22:31:00,41.5,30.0,29.97,West,262,12.9,17.4,64,0.00,,,0.00,TxWx,2013-01-20 04:31:00,
2013-01-19 22:36:00,41.2,28.0,29.97,WSW,242,14.4,18.3,63,0.00,,,0.00,TxWx,2013-01-20 04:36:00,
2013-01-19 22:41:00,41.1,27.0,29.97,WSW,239,24.3,27.3,59,0.00,,,0.00,TxWx,2013-01-20 04:41:00,
2013-01-19 22:46:00,40.6,27.0,29.97,SW,229,11.1,11.7,59,0.00,,,0.00,TxWx,2013-01-20 04:46:00,
2013-01-19 22:52:00,40.7,25.0,29.97,WSW,248,24.0,25.8,54,0.00,,,0.00,TxWx,2013-01-20 04:52:00,
2013-01-19 22:57:00,40.1,20.0,29.97,WSW,240,30.9,33.0,47,0.00,,,0.00,TxWx,2013-01-20 04:57:00,
2013-01-19 23:00:00,40.0,19.0,29.97,WSW,248,24.9,39.0,45,0.00,,,0.00,TxWx,2013-01-20 05:00:00,
2013-01-19 23:01:00,39.9,19.0,29.97,WSW,248,23.7,23.7,45,0.00,,,0.00,TxWx,2013-01-20 05:01:00,
2013-01-19 23:03:00,39.8,19.0,29.97,SW,233,21.9,21.9,44,0.00,,,0.00,TxWx,2013-01-20 05:03:00,
2013-01-19 23:04:00,39.8,18.0,29.98,WSW,250,25.2,27.9,43,0.00,,,0.00,TxWx,2013-01-20 05:04:00,
2013-01-19 23:09:00,39.2,16.0,29.98,WSW,245,30.6,30.6,41,0.00,,,0.00,TxWx,2013-01-20 05:09:00,
2013-01-19 23:14:00,38.8,16.0,29.98,SW,230,24.6,24.6,41,0.00,,,0.00,TxWx,2013-01-20 05:14:00,
2013-01-19 23:19:00,38.2,16.0,29.99,WSW,258,24.3,27.3,42,0.00,,,0.00,TxWx,2013-01-20 05:19:00,
2013-01-19 23:24:00,37.5,18.0,29.99,SW,232,28.8,28.8,45,0.00,,,0.00,TxWx,2013-01-20 05:24:00,
2013-01-19 23:30:00,37.2,17.0,30.00,WSW,255,21.6,26.4,46,0.00,,,0.00,TxWx,2013-01-20 05:30:00,
2013-01-19 23:35:00,36.6,18.0,30.00,West,265,18.0,18.0,49,0.00,,,0.00,TxWx,2013-01-20 05:35:00,
2013-01-19 23:40:00,36.0,18.0,30.01,WSW,255,24.9,24.9,49,0.00,,,0.00,TxWx,2013-01-20 05:40:00,
2013-01-19 23:45:00,35.0,17.0,30.01,WSW,245,17.1,18.9,50,0.00,,,0.00,TxWx,2013-01-20 05:45:00,
2013-01-19 23:50:00,34.5,18.0,30.02,WSW,249,15.3,15.3,52,0.00,,,0.00,TxWx,2013-01-20 05:50:00,
2013-01-19 23:56:00,34.0,18.0,30.03,WSW,255,13.5,13.5,53,0.00,,,0.00,TxWx,2013-01-20 05:56:00,